This is the latest recevied weather packets stored in our database for station/object W6MAF. If no packets are shown the sender has not sent any weather packets the latest 1 day(s).
| Time | Temp. | Humidity | Pressure | Rain* | Wind** | Luminosity | Snow |
|---|---|---|---|---|---|---|---|
| 1778064157 | 5° C | 94% | - | 0 mm | 3.58 m/s, 231° | - | - |
| 1778063562 | 5.56° C | 94% | - | 0 mm | 3.13 m/s, 218° | - | - |
| 1778063264 | 5.56° C | 94% | - | 0 mm | 3.58 m/s, 228° | - | - |
| 1778061773 | 5.56° C | 94% | - | 0 mm | 4.02 m/s, 218° | - | - |
| 1778061475 | 5.56° C | 95% | - | 0 mm | 4.02 m/s, 231° | - | - |
| 1778061174 | 5.56° C | 94% | - | 0 mm | 3.58 m/s, 225° | - | - |
| 1778060579 | 5.56° C | 95% | - | 0 mm | 4.47 m/s, 228° | - | - |
| 1778059686 | 5.56° C | 95% | - | 0 mm | 3.13 m/s, 235° | - | - |
| 1778059385 | 5.56° C | 95% | - | 0 mm | 3.58 m/s, 242° | - | - |
| 1778058790 | 5.56° C | 96% | - | 0 mm | 4.47 m/s, 228° | - | - |
| 1778057941 | 5.56° C | 96% | - | 0 mm | 4.47 m/s, 252° | - | - |
| 1778057897 | 5.56° C | 96% | - | 0 mm | 4.47 m/s, 252° | - | - |
| 1778057596 | 5.56° C | 96% | - | 0 mm | 4.92 m/s, 243° | - | - |
| 1778055807 | 6.11° C | 97% | - | 0 mm | 4.47 m/s, 239° | - | - |
| 1778055509 | 6.11° C | 97% | - | 0 mm | 5.36 m/s, 243° | - | - |
| 1778054616 | 5.56° C | 97% | - | 0 mm | 4.47 m/s, 219° | - | - |
| 1778054318 | 6.11° C | 97% | - | 0 mm | 4.92 m/s, 224° | - | - |
| 1778053720 | 5.56° C | 96% | - | 0 mm | 4.92 m/s, 193° | - | - |
| 1778053422 | 6.11° C | 96% | - | 0 mm | 4.47 m/s, 211° | - | - |
| 1778053125 | 6.11° C | 96% | - | 0 mm | 4.92 m/s, 210° | - | - |
| 1778052827 | 6.11° C | 95% | - | 0 mm | 4.47 m/s, 214° | - | - |
| 1778051931 | 6.11° C | 94% | - | 0 mm | 4.47 m/s, 207° | - | - |
| 1778051633 | 6.11° C | 94% | - | 0 mm | 5.81 m/s, 219° | - | - |
| 1778051038 | 6.11° C | 93% | - | 0 mm | 5.81 m/s, 228° | - | - |
| 1778050142 | 6.11° C | 91% | - | 0 mm | 5.36 m/s, 229° | - | - |
* Rain latest hour (hover to see other rain measurements)
** Current wind speed in m/s (hover to see current wind gust speed)